Time,TemperatureF,DewpointF,PressureIn,WindDirection,WindDirectionDegrees,WindSpeedMPH,WindSpeedGustMPH,Humidity,HourlyPrecipIn,Conditions,Clouds,dailyrainin,SoftwareType,DateUTC
2013-03-13 00:00:00,46.0,39.0,29.83,NW,326,10.0,18.0,76,-99.99,,,-99.99,,2013-03-13 04:00:00,
2013-03-13 00:23:00,46.0,39.0,29.83,NW,326,10.0,18.0,76,-99.99,,,-99.99,,2013-03-13 04:23:00,
2013-03-13 00:32:00,46.0,39.0,29.83,NW,326,10.0,18.0,76,-99.99,,,-99.99,,2013-03-13 04:32:00,
2013-03-13 00:43:00,46.0,39.0,29.83,NW,326,10.0,18.0,76,-99.99,,,-99.99,,2013-03-13 04:43:00,
2013-03-13 00:53:00,46.0,39.0,29.83,NW,326,10.0,18.0,76,-99.99,,,-99.99,,2013-03-13 04:53:00,
2013-03-13 01:00:00,44.0,38.0,29.83,NW,309,10.0,16.0,78,-99.99,,,-99.99,,2013-03-13 05:00:00,
2013-03-13 01:22:00,44.0,38.0,29.83,NW,309,10.0,16.0,78,-99.99,,,-99.99,,2013-03-13 05:22:00,
2013-03-13 01:33:00,44.0,38.0,29.83,NW,309,10.0,16.0,78,-99.99,,,-99.99,,2013-03-13 05:33:00,
2013-03-13 01:42:00,44.0,38.0,29.83,NW,309,10.0,16.0,78,-99.99,,,-99.99,,2013-03-13 05:42:00,
2013-03-13 01:52:00,44.0,38.0,29.83,NW,309,10.0,16.0,78,-99.99,,,-99.99,,2013-03-13 05:52:00,
2013-03-13 02:00:00,43.0,37.0,29.85,NW,311,6.0,15.0,81,-99.99,,,-99.99,,2013-03-13 06:00:00,
2013-03-13 02:23:00,43.0,37.0,29.85,NW,311,6.0,15.0,81,-99.99,,,-99.99,,2013-03-13 06:23:00,
2013-03-13 02:33:00,43.0,37.0,29.85,NW,311,6.0,15.0,81,-99.99,,,-99.99,,2013-03-13 06:33:00,
2013-03-13 02:42:00,43.0,37.0,29.85,NW,311,6.0,15.0,81,-99.99,,,-99.99,,2013-03-13 06:42:00,
2013-03-13 02:53:00,43.0,37.0,29.85,NW,311,6.0,15.0,81,-99.99,,,-99.99,,2013-03-13 06:53:00,
2013-03-13 03:00:00,42.0,35.0,29.85,NW,315,7.0,14.0,78,-99.99,,,-99.99,,2013-03-13 07:00:00,
2013-03-13 03:23:00,42.0,35.0,29.85,NW,315,7.0,14.0,78,-99.99,,,-99.99,,2013-03-13 07:23:00,
2013-03-13 03:33:00,42.0,35.0,29.85,NW,315,7.0,14.0,78,-99.99,,,-99.99,,2013-03-13 07:33:00,
2013-03-13 03:43:00,42.0,35.0,29.85,NW,315,7.0,14.0,78,-99.99,,,-99.99,,2013-03-13 07:43:00,
2013-03-13 03:53:00,42.0,35.0,29.85,NW,315,7.0,14.0,78,-99.99,,,-99.99,,2013-03-13 07:53:00,
2013-03-13 04:00:00,42.0,36.0,29.85,WNW,292,7.0,14.0,80,-99.99,,,-99.99,,2013-03-13 08:00:00,
2013-03-13 04:33:00,42.0,36.0,29.85,WNW,292,7.0,14.0,80,-99.99,,,-99.99,,2013-03-13 08:33:00,
2013-03-13 04:43:00,42.0,36.0,29.85,WNW,292,7.0,14.0,80,-99.99,,,-99.99,,2013-03-13 08:43:00,
2013-03-13 04:54:00,42.0,36.0,29.85,WNW,292,7.0,14.0,80,-99.99,,,-99.99,,2013-03-13 08:54:00,
2013-03-13 05:00:00,40.0,35.0,29.85,NW,304,6.0,11.0,82,-99.99,,,-99.99,,2013-03-13 09:00:00,
2013-03-13 05:23:00,40.0,35.0,29.85,NW,304,6.0,11.0,82,-99.99,,,-99.99,,2013-03-13 09:23:00,
2013-03-13 05:32:00,40.0,35.0,29.85,NW,304,6.0,11.0,82,-99.99,,,-99.99,,2013-03-13 09:32:00,
2013-03-13 05:42:00,40.0,35.0,29.85,NW,304,6.0,11.0,82,-99.99,,,-99.99,,2013-03-13 09:42:00,
2013-03-13 05:52:00,40.0,35.0,29.85,NW,304,6.0,11.0,82,-99.99,,,-99.99,,2013-03-13 09:52:00,
2013-03-13 07:00:00,38.0,34.0,29.88,West,279,5.0,8.0,84,-99.99,,,-99.99,,2013-03-13 11:00:00,
2013-03-13 07:32:00,38.0,34.0,29.88,West,279,5.0,8.0,84,-99.99,,,-99.99,,2013-03-13 11:32:00,
2013-03-13 07:42:00,38.0,34.0,29.88,West,279,5.0,8.0,84,-99.99,,,-99.99,,2013-03-13 11:42:00,
2013-03-13 07:53:00,38.0,34.0,29.88,West,279,5.0,8.0,84,-99.99,,,-99.99,,2013-03-13 11:53:00,
2013-03-13 08:00:00,39.0,33.0,29.88,West,267,7.0,9.0,80,-99.99,,,-99.99,,2013-03-13 12:00:00,
2013-03-13 08:22:00,39.0,33.0,29.88,West,267,7.0,9.0,80,-99.99,,,-99.99,,2013-03-13 12:22:00,
2013-03-13 08:32:00,39.0,33.0,29.88,West,267,7.0,9.0,80,-99.99,,,-99.99,,2013-03-13 12:32:00,
2013-03-13 08:42:00,39.0,33.0,29.88,West,267,7.0,9.0,80,-99.99,,,-99.99,,2013-03-13 12:42:00,
2013-03-13 08:53:00,39.0,33.0,29.88,West,267,7.0,9.0,80,-99.99,,,-99.99,,2013-03-13 12:53:00,
2013-03-13 09:00:00,41.0,31.0,29.88,WNW,287,8.0,14.0,67,-99.99,,,-99.99,,2013-03-13 13:00:00,
2013-03-13 09:22:00,41.0,31.0,29.88,WNW,287,8.0,14.0,67,-99.99,,,-99.99,,2013-03-13 13:22:00,
2013-03-13 09:33:00,41.0,31.0,29.88,WNW,287,8.0,14.0,67,-99.99,,,-99.99,,2013-03-13 13:33:00,
2013-03-13 09:43:00,41.0,31.0,29.88,WNW,287,8.0,14.0,67,-99.99,,,-99.99,,2013-03-13 13:43:00,
2013-03-13 09:53:00,41.0,31.0,29.88,WNW,287,8.0,14.0,67,-99.99,,,-99.99,,2013-03-13 13:53:00,
2013-03-13 10:00:00,44.0,30.0,29.88,WNW,297,11.0,15.0,56,-99.99,,,-99.99,,2013-03-13 14:00:00,
2013-03-13 10:22:00,44.0,30.0,29.88,WNW,297,11.0,15.0,56,-99.99,,,-99.99,,2013-03-13 14:22:00,
2013-03-13 10:34:00,44.0,30.0,29.88,WNW,297,11.0,15.0,56,-99.99,,,-99.99,,2013-03-13 14:34:00,
2013-03-13 10:42:00,44.0,30.0,29.88,WNW,297,11.0,15.0,56,-99.99,,,-99.99,,2013-03-13 14:42:00,
2013-03-13 10:53:00,44.0,30.0,29.88,WNW,297,11.0,15.0,56,-99.99,,,-99.99,,2013-03-13 14:53:00,
2013-03-13 11:00:00,45.0,31.0,29.88,WNW,297,9.0,17.0,57,-99.99,,,-99.99,,2013-03-13 15:00:00,
2013-03-13 11:22:00,45.0,31.0,29.88,WNW,297,9.0,17.0,57,-99.99,,,-99.99,,2013-03-13 15:22:00,
2013-03-13 11:33:00,45.0,31.0,29.88,WNW,297,9.0,17.0,57,-99.99,,,-99.99,,2013-03-13 15:33:00,
2013-03-13 11:43:00,45.0,31.0,29.88,WNW,297,9.0,17.0,57,-99.99,,,-99.99,,2013-03-13 15:43:00,
2013-03-13 11:53:00,45.0,31.0,29.88,WNW,297,9.0,17.0,57,-99.99,,,-99.99,,2013-03-13 15:53:00,
2013-03-13 12:00:00,47.0,27.0,29.85,WSW,244,5.0,17.0,46,-99.99,,,-99.99,,2013-03-13 16:00:00,
2013-03-13 12:33:00,47.0,27.0,29.85,WSW,244,5.0,17.0,46,-99.99,,,-99.99,,2013-03-13 16:33:00,
2013-03-13 12:42:00,47.0,27.0,29.85,WSW,244,5.0,17.0,46,-99.99,,,-99.99,,2013-03-13 16:42:00,
2013-03-13 12:52:00,47.0,27.0,29.85,WSW,244,5.0,17.0,46,-99.99,,,-99.99,,2013-03-13 16:52:00,
2013-03-13 13:00:00,48.0,26.0,29.85,WSW,257,8.0,19.0,41,-99.99,,,-99.99,,2013-03-13 17:00:00,
2013-03-13 13:23:00,48.0,26.0,29.85,WSW,257,8.0,19.0,41,-99.99,,,-99.99,,2013-03-13 17:23:00,
2013-03-13 13:33:00,48.0,26.0,29.85,WSW,257,8.0,19.0,41,-99.99,,,-99.99,,2013-03-13 17:33:00,
2013-03-13 13:42:00,48.0,26.0,29.85,WSW,257,8.0,19.0,41,-99.99,,,-99.99,,2013-03-13 17:42:00,
2013-03-13 13:53:00,48.0,26.0,29.85,WSW,257,8.0,19.0,41,-99.99,,,-99.99,,2013-03-13 17:53:00,
2013-03-13 14:00:00,49.0,24.0,29.83,WSW,251,14.0,24.0,37,-99.99,,,-99.99,,2013-03-13 18:00:00,
2013-03-13 14:22:00,49.0,24.0,29.83,WSW,251,14.0,24.0,37,-99.99,,,-99.99,,2013-03-13 18:22:00,
2013-03-13 14:33:00,49.0,24.0,29.83,WSW,251,14.0,24.0,37,-99.99,,,-99.99,,2013-03-13 18:33:00,
2013-03-13 14:43:00,49.0,24.0,29.83,WSW,251,14.0,24.0,37,-99.99,,,-99.99,,2013-03-13 18:43:00,
2013-03-13 14:52:00,49.0,24.0,29.83,WSW,251,14.0,24.0,37,-99.99,,,-99.99,,2013-03-13 18:52:00,
2013-03-13 16:00:00,50.0,22.0,29.80,WSW,241,14.0,-999.0,33,-99.99,,,-99.99,,2013-03-13 20:00:00,
2013-03-13 16:23:00,50.0,22.0,29.80,WSW,241,14.0,-999.0,33,-99.99,,,-99.99,,2013-03-13 20:23:00,
2013-03-13 16:32:00,50.0,22.0,29.80,WSW,241,14.0,-999.0,33,-99.99,,,-99.99,,2013-03-13 20:32:00,
2013-03-13 16:42:00,50.0,22.0,29.80,WSW,241,14.0,-999.0,33,-99.99,,,-99.99,,2013-03-13 20:42:00,
2013-03-13 16:52:00,50.0,22.0,29.80,WSW,241,14.0,-999.0,33,-99.99,,,-99.99,,2013-03-13 20:52:00,
2013-03-13 17:00:00,49.0,25.0,29.80,West,262,17.0,24.0,39,-99.99,,,-99.99,,2013-03-13 21:00:00,
2013-03-13 17:22:00,49.0,25.0,29.80,West,262,17.0,24.0,39,-99.99,,,-99.99,,2013-03-13 21:22:00,
2013-03-13 17:34:00,49.0,25.0,29.80,West,262,17.0,24.0,39,-99.99,,,-99.99,,2013-03-13 21:34:00,
2013-03-13 17:42:00,49.0,25.0,29.80,West,262,17.0,24.0,39,-99.99,,,-99.99,,2013-03-13 21:42:00,
2013-03-13 17:52:00,49.0,25.0,29.80,West,262,17.0,24.0,39,-99.99,,,-99.99,,2013-03-13 21:52:00,
2013-03-13 18:00:00,48.0,24.0,29.83,West,266,10.0,24.0,39,-99.99,,,-99.99,,2013-03-13 22:00:00,
2013-03-13 18:32:00,48.0,24.0,29.83,West,266,10.0,24.0,39,-99.99,,,-99.99,,2013-03-13 22:32:00,
2013-03-13 18:42:00,48.0,24.0,29.83,West,266,10.0,24.0,39,-99.99,,,-99.99,,2013-03-13 22:42:00,
2013-03-13 18:52:00,48.0,24.0,29.83,West,266,10.0,24.0,39,-99.99,,,-99.99,,2013-03-13 22:52:00,
2013-03-13 19:00:00,43.0,33.0,29.85,WNW,286,9.0,33.0,69,-99.99,,,-99.99,,2013-03-13 23:00:00,
2013-03-13 19:32:00,43.0,33.0,29.85,WNW,286,9.0,33.0,69,-99.99,,,-99.99,,2013-03-13 23:32:00,
2013-03-13 19:43:00,43.0,33.0,29.85,WNW,286,9.0,33.0,69,-99.99,,,-99.99,,2013-03-13 23:43:00,
2013-03-13 19:52:00,43.0,33.0,29.85,WNW,286,9.0,33.0,69,-99.99,,,-99.99,,2013-03-13 23:52:00,
2013-03-13 20:00:00,40.0,32.0,29.85,West,268,6.0,17.0,72,-99.99,,,-99.99,,2013-03-14 00:00:00,
2013-03-13 20:22:00,40.0,32.0,29.85,West,268,6.0,17.0,72,-99.99,,,-99.99,,2013-03-14 00:22:00,
2013-03-13 20:33:00,40.0,32.0,29.85,West,268,6.0,17.0,72,-99.99,,,-99.99,,2013-03-14 00:33:00,
2013-03-13 20:42:00,40.0,32.0,29.85,West,268,6.0,17.0,72,-99.99,,,-99.99,,2013-03-14 00:42:00,
2013-03-13 20:52:00,40.0,32.0,29.85,West,268,6.0,17.0,72,-99.99,,,-99.99,,2013-03-14 00:52:00,
2013-03-13 21:00:00,40.0,31.0,29.85,West,266,6.0,11.0,72,-99.99,,,-99.99,,2013-03-14 01:00:00,
2013-03-13 21:23:00,40.0,31.0,29.85,West,266,6.0,11.0,72,-99.99,,,-99.99,,2013-03-14 01:23:00,
2013-03-13 21:33:00,40.0,31.0,29.85,West,266,6.0,11.0,72,-99.99,,,-99.99,,2013-03-14 01:33:00,
2013-03-13 21:42:00,40.0,31.0,29.85,West,266,6.0,11.0,72,-99.99,,,-99.99,,2013-03-14 01:42:00,
2013-03-13 21:53:00,40.0,31.0,29.85,West,266,6.0,11.0,72,-99.99,,,-99.99,,2013-03-14 01:53:00,
2013-03-13 22:00:00,40.0,31.0,29.88,West,268,10.0,13.0,70,-99.99,,,-99.99,,2013-03-14 02:00:00,
2013-03-13 22:22:00,40.0,31.0,29.88,West,268,10.0,13.0,70,-99.99,,,-99.99,,2013-03-14 02:22:00,
2013-03-13 22:33:00,40.0,31.0,29.88,West,268,10.0,13.0,70,-99.99,,,-99.99,,2013-03-14 02:33:00,
2013-03-13 22:42:00,40.0,31.0,29.88,West,268,10.0,13.0,70,-99.99,,,-99.99,,2013-03-14 02:42:00,
2013-03-13 22:52:00,40.0,31.0,29.88,West,268,10.0,13.0,70,-99.99,,,-99.99,,2013-03-14 02:52:00,
2013-03-13 23:23:00,39.0,26.0,29.88,West,269,13.0,19.0,59,-99.99,,,-99.99,,2013-03-14 03:23:00,
2013-03-13 23:33:00,39.0,26.0,29.88,West,269,13.0,19.0,59,-99.99,,,-99.99,,2013-03-14 03:33:00,
2013-03-13 23:42:00,39.0,26.0,29.88,West,269,13.0,19.0,59,-99.99,,,-99.99,,2013-03-14 03:42:00,
2013-03-13 23:53:00,39.0,26.0,29.88,West,269,13.0,19.0,59,-99.99,,,-99.99,,2013-03-14 03:53:00,